Flag for Venezuela Weather past 2 weeks in Barquisimeto, Venezuela

Now
75 °F

Passing clouds.


Feels Like: 75 °F
Forecast: 68 / 92 °F
Wind: 15 mph from East

Location: Barquisimeto Airport

Current Time: Aug 1, 2014 at 9:30:39 AM

Latest Report: Aug 1, 2014 at 8:30 AM


Visibility: N/A

Pressure: 30.01 "Hg

Humidity: 83%

Dew point: 70 °F

Location of BarquisimetoLocation

Historic Weather in Barquisimeto — Graph

°F

Barquisimeto temperature yesterday

Maximum temperature yesterday: 86 °F (at 2:30 PM)
Minimum temperature yesterday: 70 °F (at 4:30 AM)
Average temperature yesterday: 78 °F

Past Weeks' High & Low Weather Summary

 TemperatureHumidityPressure
High91 °F (Jul 23, 8:30 AM)100% (Jul 21, 4:30 AM)30.12 "Hg (Jul 21, 4:30 AM)
Low66 °F (Jul 30, 4:30 AM)37% (Jul 23, 11:30 AM)29.83 "Hg (Jul 22, 11:30 AM)
Average76 °F79%30.04 "Hg
* Reported Jul 17 8:30 AM — Aug 1 8:30 AM, Barquisimeto, Weather by CustomWeather, © 2014

Note: Actual official high and low records may vary slightly from our data, if they occured in-between our weather recording intervals... More about our weather records

Advertising

Barquisimeto weather history for previous 24 hours

 ConditionsComfort  
Time TempWeatherWind HumidityBarometerVisibility
8:30 AM
Aug 1
75 °FPassing clouds.15 mph83%30.01 "HgN/A
7:30 AM73 °FPassing clouds.12 mph89%30.01 "HgN/A
6:30 AM72 °FScattered clouds.9 mph94%30.01 "HgN/A
5:30 AM72 °FPassing clouds.8 mph88%30.01 "HgN/A
4:30 AM70 °FPassing clouds.13 mph50%30.01 "HgN/A
1:30 AM73 °FPassing clouds.12 mph83%30.01 "HgN/A
10:30 PM
Jul 31
73 °FPassing clouds.15 mph89%30.01 "HgN/A
9:30 PM73 °FPassing clouds.16 mph89%30.01 "HgN/A
8:30 PM75 °FPassing clouds.18 mph83%29.98 "HgN/A
7:30 PM77 °FPassing clouds.14 mph79%29.95 "HgN/A
6:30 PM79 °FPassing clouds.13 mph74%29.95 "HgN/A
5:30 PM82 °FPassing clouds.15 mph62%29.92 "HgN/A
4:30 PM84 °FPassing clouds.14 mph58%29.95 "HgN/A
3:30 PM86 °FScattered clouds.13 mph55%29.95 "HgN/A
2:30 PM86 °FScattered clouds.16 mph55%29.98 "HgN/A
1:30 PM84 °FScattered clouds.17 mph62%29.98 "HgN/A
12:30 PM84 °FScattered clouds.13 mph62%30.01 "HgN/A
11:30 AM82 °FPassing clouds.14 mph66%30.04 "HgN/A
10:30 AM79 °FPassing clouds.18 mph74%30.07 "HgN/A
9:30 AM77 °FPassing clouds.14 mph79%30.07 "HgN/A
Weather by CustomWeather, © 2014

See weather overviewHow to use our weather pages